Location: Redwood Loop Observatory
(43.9900°N, 124.0900°W)
Time: 12:31:47
(UTC-08:00)

Envisat - Pass Details

Date: 25 October 2019
Orbit: 764 x 766 km, 98.1° (Epoch: 11 November)

Event Time Altitude Azimuth Distance (km) Brightness Sun altitude
Rises 20:44:55 0° 215° (SW) 3,220 6.5 -27.2°
Reaches altitude 10° 20:48:22 10° 240° (WSW) 2,300 6.1 -27.9°
Maximum altitude 20:51:00 14° 271° (W) 2,030 6.0 -28.3°
Drops below altitude 10° 20:53:39 10° 303° (WNW) 2,309 6.3 -28.8°
Sets 20:57:08 0° 328° (NNW) 3,241 6.8 -29.4°
